Probability
0 0 0 0 0 0 0 0 0 0 0 0 0 0 0 0 0 0 0 0 0 0 0 0 0 0 0 0 0 0 0 0 0 0 0 0 0 0 0 0 0 0 0
0 0 0 0 0 0 0 0 0 0 0 0 0 0 0 0 0 0 0 0 0 0 0 0 0 0 0 0 0 0 0 0 0 0 0 0 0 0 0 0 0 0 0
0 0 0 0 0 0 0 0 0 0 0 0 0 0 0 0 0 0 0 0 0 0 0 0 0 0 0 0 0 0 0 0 0 0 0 0 0 0 0 0 0 0 0
0 0 0 0 0 0 0 0 0 0 0 0 0 0 0 0 0 0 0 0 0 0 0 0 0 0 0 0 0 0 0 0 0 0 0 0 0 0 0 0 0 0 0
0 0 0 0 0 0 0 0 0 0 0 0 0 0 0 0 0 0 0 0 0 0 0 0 0 0 0 0 0 0 0 0 0 0 0 0 0 0 0 0 0 0 0
0 0 0 0 0 0 0 0 0 0 0 0 0 0 0 0 0 0 0 0 0 0 0 0 0 0 0 0 0 0 0 0 0 0 0 0 0 0 0 0 0 0 0
0 0 0 0 0 0 0 0 0 0 0 0 0 0 0 0 0 0 0 0 0 0 0 0 0 0 0 0 0 0 0 0 0 0 0 0 0 0 0 0 0 0 0
0 0 0 0 0 0 0 0 0 0 0 0 0 0 0 0 0 0 0 0 0 0 0 0 0 0 0 0 0 0 0 0 0 0 0 0 0 0 0 0 0 0 0
0 0 0 0 0 0 0 0 0 0 0 0 0 0 0 0 0 0 0 0 0 0 0 0 0 0 0 0 0 0 0 0 0 0 0 0 0 0 0 0 0 0 0
0 0 0 0 0 0 0 0 0 0 0 0 0 0 0 0 0 0 0 0 0 0 0 0 0 0 0 0 0 0 0 0 0 0 0 0 0 0 0 0 0 0 0
0 0 0 0 0 0 0 0 0 0 0 0 0 0 0 0 0 0 0 0 0 0 0 0 0 0 0 0 0 0 0 0 0 0 0 0 0 0 0 0 0 0 0
0 0 0 0 0 0 0 0 0 0 0 0 0 0 0 0 0 0 0 0 0 0 0 0 0 0 0 0 0 0 0 0 0 0 0 0 0 0 0 0 0 0 0
0 0 0 0 0 0 0 0 0 0 0 0 0 0 0 0 0 0 0 0 0 0 0 0 0 0 0 0 0 0 0 0 0 0 0 0 0 0 0 0 0 0 0
0 0 0 0 0 0 0 0 0 0 0 0 0 0 0 0 0 0 0 0 0 0 0 0 0 0 0 0 0 0 0 0 0 0 0 0 0 0 0 0 0 0 0
0 0 0 0 0 0 0 0 0 0 0 0 0 0 0 0 0 0 0 0 0 0 0 0 0 0 0 0 0 0 0 0 0 0 0 0 0 0 0 0 0 0 0
0 0 0 0 0 0 0 0 0 0 0 0 0 0 0 0 0 0 0 0 0 0 0 0 0 0 0 0 0 0 0 0 0 0 0 0 0 0 0 0 0 0 0
0 0 0 0 0 0 0 0 0 0 0 0 0 0 0 0 0 0 0 0 0 0 0 0 0 0 0 0 0 0 0 0 0 0 0 0 0 0 0 0 0 0 0
0 0 0 0 0 0 0 0 0 0 0 0 0 0 0 0 0 0 0 0 0 0 0 0 0 0 0 0 0 0 0 0 0 0 0 0 0 0 0 0 0 0 0
0 0 0 0 0 0 0 0 0 0 0 0 0 0 0 0 0 0 0 0 0 0 0 0 0 0 0 0 0 0 0 0 0 0 0 0 0 0 0 0 0 0 0
0 0 0 0 0 0 0 0 0 0 0 0 0 0 0 0 0 0 0 0 0 0 0 0 0 0 0 0 0 0 0 0 0 0 0 0 0 0 0 0 0 0 0
0 0 0 0 0 0 0 0 0 0 0 0 0 0 0 0 0 0 0 0 0 0 0 0 0 0 0 0 0 0 0 0 0 0 0 0 0 0 0 0 0 0 0
0 0 0 0 0 0 0 0 0 0 0 0 0 0 0 0 0 0 0 0 0 0 0 0 0 0 0 0 0 0 0 0 0 0 0 0 0 0 0 0 0 0 0
0 0 0 0 0 0 0 0 0 0 0 0 0 0 0 0 0 0 0 0 0 0 0 0 0 0 0 0 0 0 0 0 0 0 0 0 0 0 0 0 0 0 0
0 0 0 0 0 0 0 0 0 0 0 0 0 0 0 0 0 0 0 0 0 0 0 0 0 0 0 0 0 0 0 0 0 0 0 0 0 0 0 0 0 0 0
0 0 0 0 0 0 0 0 0 0 0 0 0 0 0 0 0 0 0 0 0 0 0 0 0 0 0 0 0 0 0 0 0 0 0 0 0 0 0 0 0 0 0
0 0 0 0 0 0 0 0 0 0 0 0 0 0 0 0 0 0 0 0 0 0 0 0 0 0 0 0 0 0 0 0 0 0 0 0 0 0 0 0 0 0 0
Height
5855 5855 5854 5854 5854 5854 5853 5852 5851 5849 5848 5846 5843 5840 5837 5833 5829 5826 5821 5817 5813 5809 5805 5800 5796 5792 5789 5786 5784 5782 5782 5782 5783 5784 5786 5789 5792 5796 5800 5804 5809 5814 5818
5853 5853 5852 5852 5852 5852 5851 5850 5849 5848 5846 5844 5842 5839 5835 5832 5828 5824 5820 5816 5812 5808 5804 5799 5795 5792 5788 5785 5783 5781 5780 5780 5780 5782 5784 5786 5790 5792 5796 5800 5805 5809 5814
5851 5851 5850 5850 5850 5849 5849 5848 5847 5846 5845 5843 5840 5837 5834 5831 5827 5823 5819 5815 5811 5807 5803 5799 5795 5791 5787 5784 5782 5780 5779 5778 5779 5780 5782 5784 5787 5790 5793 5797 5801 5806 5810
5849 5849 5848 5848 5847 5847 5847 5846 5845 5844 5843 5841 5838 5836 5833 5829 5826 5822 5818 5814 5810 5806 5802 5798 5794 5791 5787 5784 5782 5780 5778 5778 5778 5779 5780 5782 5784 5787 5791 5794 5798 5802 5806
5847 5846 5846 5845 5845 5845 5845 5844 5843 5842 5841 5839 5837 5834 5831 5828 5825 5821 5818 5814 5809 5805 5802 5798 5794 5791 5787 5784 5782 5780 5778 5777 5777 5778 5779 5780 5783 5785 5788 5792 5796 5799 5803
5844 5844 5843 5843 5842 5842 5842 5842 5841 5840 5839 5837 5835 5833 5830 5827 5824 5820 5817 5813 5809 5805 5801 5798 5794 5791 5788 5785 5783 5780 5779 5777 5777 5777 5778 5779 5781 5784 5786 5789 5792 5796 5800
5842 5841 5841 5840 5840 5840 5840 5839 5839 5838 5837 5835 5833 5831 5829 5826 5823 5820 5816 5813 5809 5805 5801 5798 5794 5791 5788 5785 5783 5781 5779 5778 5777 5777 5777 5778 5780 5782 5784 5787 5790 5793 5797
5840 5839 5838 5838 5837 5837 5837 5837 5836 5835 5834 5833 5831 5830 5827 5825 5822 5819 5816 5812 5808 5805 5801 5798 5794 5791 5788 5786 5783 5781 5780 5778 5777 5777 5777 5777 5778 5780 5782 5785 5788 5791 5794
5837 5836 5835 5835 5834 5834 5834 5834 5833 5832 5832 5831 5829 5828 5826 5823 5821 5818 5815 5811 5808 5805 5801 5798 5795 5792 5789 5786 5784 5782 5780 5778 5777 5776 5776 5776 5777 5778 5780 5782 5785 5788 5791
5834 5833 5832 5832 5831 5831 5831 5830 5830 5829 5829 5828 5827 5825 5824 5822 5819 5817 5814 5811 5807 5804 5801 5798 5795 5792 5789 5786 5784 5782 5780 5778 5777 5776 5776 5776 5776 5777 5778 5780 5782 5785 5787
5831 5830 5829 5828 5828 5827 5827 5827 5826 5826 5825 5825 5824 5823 5821 5819 5817 5815 5812 5810 5807 5804 5801 5798 5795 5792 5789 5787 5784 5782 5780 5778 5777 5776 5775 5775 5775 5775 5776 5778 5779 5781 5784
5828 5827 5826 5825 5824 5823 5823 5823 5823 5822 5822 5821 5821 5820 5818 5817 5815 5813 5811 5808 5805 5803 5800 5797 5795 5792 5789 5786 5784 5782 5780 5778 5777 5776 5775 5774 5774 5774 5775 5776 5777 5778 5780
5824 5823 5822 5821 5820 5819 5819 5819 5818 5818 5818 5818 5817 5816 5815 5814 5812 5810 5808 5806 5804 5801 5799 5796 5794 5791 5789 5786 5784 5782 5780 5778 5777 5775 5774 5773 5772 5772 5773 5773 5774 5775 5777
5820 5818 5817 5816 5816 5815 5815 5814 5814 5813 5813 5813 5813 5812 5811 5810 5809 5807 5806 5804 5802 5800 5797 5795 5793 5791 5788 5786 5784 5781 5779 5777 5776 5774 5773 5772 5771 5770 5770 5771 5771 5772 5773
5816 5814 5813 5812 5811 5810 5810 5809 5809 5808 5808 5808 5808 5807 5807 5806 5805 5804 5803 5801 5799 5797 5795 5793 5791 5789 5787 5785 5783 5781 5778 5776 5774 5773 5771 5770 5769 5768 5768 5768 5768 5769 5769
5811 5810 5809 5807 5806 5805 5804 5804 5804 5803 5803 5803 5802 5802 5802 5801 5801 5800 5799 5797 5796 5794 5793 5791 5789 5787 5785 5783 5781 5779 5777 5775 5773 5771 5769 5768 5767 5766 5766 5765 5765 5765 5766
5806 5804 5803 5802 5801 5800 5799 5798 5798 5797 5797 5797 5796 5796 5796 5796 5796 5795 5794 5793 5792 5791 5789 5788 5786 5784 5783 5781 5779 5777 5775 5773 5771 5769 5767 5766 5765 5764 5764 5763 5763 5762 5762
5800 5799 5797 5796 5795 5794 5793 5792 5791 5791 5790 5790 5790 5790 5790 5790 5789 5789 5789 5788 5787 5786 5785 5784 5782 5781 5779 5778 5776 5774 5773 5771 5769 5767 5766 5764 5763 5762 5761 5761 5760 5760 5759
5794 5792 5791 5789 5788 5787 5785 5785 5784 5783 5783 5783 5783 5782 5782 5782 5782 5783 5783 5782 5782 5781 5780 5779 5778 5777 5776 5774 5773 5771 5770 5768 5767 5765 5764 5762 5761 5760 5759 5758 5757 5757 5756
5786 5784 5783 5781 5780 5779 5777 5777 5776 5776 5775 5775 5775 5774 5775 5775 5775 5775 5775 5776 5775 5775 5775 5774 5773 5772 5771 5770 5769 5768 5766 5765 5764 5763 5761 5760 5758 5757 5756 5755 5754 5753 5752
5777 5775 5774 5772 5771 5769 5768 5768 5767 5767 5767 5766 5766 5766 5766 5766 5767 5767 5768 5768 5768 5768 5768 5768 5767 5767 5766 5765 5764 5763 5762 5761 5760 5759 5758 5756 5755 5754 5753 5751 5750 5749 5748
5766 5765 5763 5762 5760 5759 5758 5757 5757 5757 5756 5756 5756 5756 5757 5757 5757 5758 5759 5759 5760 5761 5761 5761 5761 5760 5760 5759 5759 5758 5757 5756 5755 5754 5753 5752 5751 5750 5748 5747 5746 5745 5744
5754 5752 5751 5750 5749 5747 5746 5746 5745 5745 5745 5745 5746 5746 5746 5747 5747 5748 5749 5750 5751 5752 5752 5753 5753 5753 5753 5753 5753 5752 5752 5751 5750 5749 5748 5747 5746 5745 5744 5743 5741 5740 5739
5739 5738 5737 5736 5735 5734 5733 5732 5732 5732 5732 5732 5733 5734 5735 5736 5736 5737 5738 5740 5741 5742 5743 5744 5745 5745 5745 5746 5746 5745 5745 5745 5744 5743 5742 5741 5740 5739 5738 5737 5736 5735 5733
5723 5721 5720 5720 5720 5719 5719 5718 5717 5717 5718 5718 5720 5721 5722 5724 5725 5726 5727 5729 5731 5732 5733 5734 5735 5736 5737 5737 5738 5738 5738 5738 5737 5736 5736 5735 5734 5733 5732 5731 5730 5729 5728
5705 5703 5702 5702 5702 5702 5702 5701 5700 5701 5702 5703 5705 5706 5708 5710 5712 5714 5716 5717 5719 5721 5722 5724 5725 5727 5728 5728 5729 5729 5729 5730 5730 5729 5729 5728 5727 5726 5725 5724 5723 5722 5721
Wind_Speed
7 7 7 6 5 6 6 6 8 9 10 12 14 16 17 18 19 19 20 20 20 20 20 19 18 16 13 12 9 7 6 8 10 12 15 19 22 24 26 28 28 27 27
7 7 7 7 6 6 6 7 8 9 10 12 14 15 17 18 18 19 19 20 20 20 19 19 18 16 14 11 9 6 5 6 8 11 14 16 19 22 24 27 27 27 26
6 7 7 7 7 7 7 7 8 9 10 12 13 15 16 17 17 18 19 19 20 19 19 19 18 16 14 12 9 6 4 4 6 9 12 15 17 20 22 25 26 26 26
7 7 7 7 7 7 7 8 9 9 10 11 13 14 15 16 17 17 18 19 19 19 19 18 18 16 14 12 11 8 4 3 4 7 10 13 16 18 20 23 25 25 25
7 8 8 8 8 8 8 8 9 10 10 11 12 13 14 15 16 17 18 18 19 19 18 18 17 16 14 13 11 9 6 3 2 5 8 11 13 15 18 21 23 24 25
8 8 8 8 8 8 8 9 9 10 10 10 11 12 13 14 15 16 17 18 18 18 18 17 17 16 14 12 11 9 8 5 1 2 5 9 11 14 16 18 20 22 23
9 9 9 9 9 9 9 9 10 10 10 10 10 11 12 13 14 15 16 17 18 18 17 17 16 15 14 13 11 10 8 6 3 1 4 7 10 13 15 17 19 20 22
9 9 10 10 9 10 10 10 10 10 10 10 10 11 11 12 13 14 15 16 17 17 17 16 15 14 14 13 11 11 9 7 4 2 1 4 7 11 14 16 17 19 20
10 10 10 11 11 11 11 11 11 11 10 10 10 10 11 11 12 13 14 15 16 16 15 15 15 14 14 12 11 10 10 8 5 3 1 2 5 8 11 15 16 17 19
12 12 12 12 12 12 12 12 12 12 11 11 11 11 11 11 12 13 14 14 15 15 14 14 15 14 13 12 11 10 10 8 6 4 2 2 4 6 9 13 14 15 18
12 13 13 13 14 14 14 14 14 13 12 12 12 11 11 11 11 12 13 13 14 14 14 14 14 14 13 12 11 10 9 8 7 5 4 3 4 6 7 10 12 14 16
12 13 14 14 15 15 15 15 15 15 14 14 13 13 12 11 11 11 12 12 13 13 13 13 13 13 13 13 12 10 9 8 7 6 5 4 3 5 7 9 11 12 14
14 14 14 15 16 16 17 17 17 17 16 16 15 14 13 12 12 11 11 12 12 12 12 12 12 12 12 12 12 11 10 8 7 6 5 4 4 5 6 8 10 12 13
15 15 15 16 17 17 18 18 19 19 18 18 17 16 15 14 13 12 12 11 11 12 12 11 11 11 11 11 11 11 10 9 9 7 6 5 4 5 6 7 9 11 12
17 17 17 17 18 18 19 20 20 20 20 19 19 18 17 16 15 14 13 12 11 11 11 11 11 11 11 10 10 10 10 10 9 9 7 6 6 5 6 7 8 9 11
18 19 18 18 19 19 20 21 21 22 22 21 21 20 19 18 17 16 14 13 12 12 11 11 11 11 11 11 10 10 10 10 10 9 8 7 7 6 6 7 7 9 10
21 21 20 20 20 21 21 22 22 23 23 23 23 22 21 20 19 18 16 15 14 13 12 12 12 12 11 11 11 10 10 10 10 10 9 8 7 7 7 7 7 8 10
23 23 22 22 22 23 23 23 24 24 25 25 25 25 24 23 22 20 19 18 16 15 14 14 13 12 12 12 11 11 10 10 10 10 9 9 8 8 9 9 9 9 10
25 25 25 25 25 25 25 25 25 25 26 26 26 27 27 26 25 23 22 21 19 17 16 15 15 14 13 12 12 12 11 11 11 10 10 9 9 9 9 10 10 11 11
28 28 28 28 28 28 28 28 27 28 27 28 28 29 29 28 27 26 25 23 22 20 19 17 16 15 14 14 13 12 12 12 12 11 11 10 10 10 10 10 11 11 12
32 32 31 31 31 31 31 31 30 30 30 30 30 31 30 30 30 29 28 26 25 23 22 20 19 18 17 16 15 14 14 14 13 13 13 12 12 12 12 12 12 13 13
36 36 35 35 35 35 34 34 34 34 33 33 33 33 32 32 32 32 30 29 28 26 25 23 21 20 19 18 17 16 16 15 15 15 15 15 14 14 13 13 14 14 15
41 40 40 39 38 38 38 37 37 37 37 36 35 35 34 34 34 34 33 31 30 29 27 26 24 22 21 20 19 18 18 17 17 17 17 17 16 16 16 15 15 15 16
46 46 44 43 42 42 42 41 40 41 40 40 39 38 37 36 36 36 35 34 32 31 30 28 27 25 24 22 22 21 20 19 19 18 18 18 18 18 18 18 17 17 17
51 50 49 48 46 46 45 45 45 44 44 43 42 41 40 39 38 37 37 36 34 33 32 31 29 28 26 25 24 23 22 21 21 20 19 19 19 19 19 19 19 19 19
54 54 53 52 50 49 48 48 48 48 47 46 45 44 43 42 41 40 39 38 37 35 34 33 32 30 29 28 26 25 24 23 23 22 21 21 21 21 21 21 21 21 21
Wind_Direction
295 287 278 277 276 278 288 304 315 324 332 337 340 342 344 346 347 349 349 349 350 350 351 351 350 350 347 341 333 309 272 248 236 227 222 217 214 214 211 210 210 211 210
290 287 278 274 273 274 287 301 312 321 329 335 339 342 344 346 348 350 351 352 351 350 350 351 352 350 349 348 344 327 290 257 237 227 219 215 214 214 211 210 209 209 209
296 292 281 272 272 273 283 296 308 316 324 332 337 341 344 346 349 351 352 353 353 352 351 352 353 353 353 351 350 343 317 269 240 221 214 214 215 211 210 211 211 210 209
299 292 282 275 273 272 279 291 302 311 319 328 334 339 344 347 349 351 353 354 355 355 354 354 355 355 356 357 359 356 343 292 238 220 215 212 212 210 208 210 212 212 210
300 293 285 281 276 273 277 286 298 306 315 323 331 338 343 346 349 352 353 356 357 357 356 356 357 358 359 2 5 7 3 349 249 218 211 210 212 211 211 211 212 212 213
302 294 289 283 276 273 274 282 293 300 308 318 327 335 341 345 348 351 353 356 357 357 357 358 359 0 2 3 4 7 11 11 346 219 206 208 212 214 214 212 211 212 215
302 294 288 284 277 273 273 279 288 294 301 312 321 330 338 343 346 350 352 354 357 358 359 359 0 2 3 5 6 7 7 6 5 266 207 208 212 214 213 212 212 214 215
300 294 288 284 279 273 271 275 283 290 296 304 313 322 332 339 343 346 350 352 355 358 1 1 1 3 3 4 5 4 6 6 4 349 209 206 211 213 214 215 215 218 218
299 294 287 282 278 272 269 272 278 283 289 296 303 312 323 332 338 343 347 351 354 357 0 2 2 4 4 2 2 3 5 2 359 354 314 222 212 212 213 216 217 218 218
299 293 285 280 276 271 268 270 274 278 283 288 293 302 313 323 331 338 344 348 352 355 357 1 3 4 4 4 2 3 3 2 359 352 330 262 230 218 218 219 220 220 219
295 288 283 279 275 271 268 268 271 274 277 281 285 293 302 311 321 330 338 344 348 352 355 357 0 3 4 3 2 1 1 1 0 357 348 306 256 233 223 223 227 228 224
294 287 282 278 274 271 269 268 269 271 273 275 278 283 291 300 309 319 329 337 343 347 350 352 355 358 1 3 2 0 360 359 357 354 345 323 286 251 235 231 231 231 230
299 293 285 279 275 272 270 268 267 268 269 271 273 277 282 289 296 306 316 326 334 340 342 346 350 354 358 0 1 360 358 356 353 349 340 323 295 262 246 240 238 236 235
302 296 289 281 275 272 270 268 266 266 266 266 269 271 276 281 286 293 302 312 322 330 334 337 343 348 351 354 355 354 353 350 346 341 334 322 299 276 258 249 245 242 240
301 298 292 284 277 273 271 269 267 266 265 265 265 267 270 274 279 284 290 299 308 317 324 327 331 336 340 343 346 347 346 343 339 335 328 318 303 288 273 262 255 250 246
298 297 295 289 282 277 273 269 267 266 265 264 264 263 265 268 272 276 281 287 294 303 310 315 317 322 327 331 334 337 339 338 335 331 325 315 304 293 286 277 266 260 255
296 295 294 290 285 280 276 272 268 266 264 264 263 262 261 263 266 270 273 278 283 290 297 303 308 312 316 320 323 325 329 332 331 329 326 319 309 297 292 286 279 271 263
294 293 291 290 286 282 277 273 270 267 265 264 263 261 260 260 262 265 268 271 275 280 285 291 297 301 306 309 313 316 317 321 325 324 321 317 311 304 296 291 286 278 273
291 290 288 287 284 281 278 274 271 268 266 264 263 261 259 259 259 262 264 266 269 273 277 282 287 292 297 301 303 306 307 310 316 319 317 315 310 307 300 293 288 283 277
290 288 286 284 282 280 277 273 270 268 267 265 263 262 260 258 258 259 261 263 265 267 271 275 279 283 287 291 295 298 299 300 303 307 308 307 305 304 302 297 291 287 282
287 286 284 282 280 278 275 273 271 268 266 264 263 261 260 259 258 257 258 260 262 263 266 268 272 276 279 283 286 290 292 294 296 297 298 298 298 299 300 299 294 289 284
285 283 282 280 279 277 274 272 270 268 266 264 263 261 259 258 257 257 257 258 259 261 262 264 266 269 273 276 280 283 286 288 291 293 293 292 292 293 294 296 296 292 288
285 282 280 278 277 275 273 271 268 266 265 263 262 260 259 257 256 256 255 255 256 258 259 260 262 264 267 270 273 277 281 283 286 288 289 288 288 288 289 291 292 292 291
283 282 279 277 275 273 272 269 267 265 264 262 261 260 258 257 255 254 254 254 254 256 257 258 259 261 263 266 268 271 275 279 281 284 285 285 286 286 286 287 288 290 290
282 280 278 276 273 271 269 267 265 264 262 261 260 259 257 256 255 253 252 253 253 254 254 255 256 258 260 262 264 267 270 273 276 279 281 282 283 284 285 286 287 288 289
282 279 277 276 273 270 267 265 263 262 261 259 258 257 256 255 254 252 251 251 252 252 252 253 254 256 257 259 262 265 267 269 272 275 277 280 282 283 284 285 286 286 288